AirNav   Pilot Hours Calculator
 
 1108 users online  

0MA1 Massachusetts General Hospital Heliport
Boston, Massachusetts, USA

GOING TO BOSTON?


FAA INFORMATION EFFECTIVE 08 SEPTEMBER 2022

Location

FAA Identifier: 0MA1
Lat/Long: 42-21-49.2600N 071-04-09.2200W
42-21.821000N 071-04.153667W
42.3636833,-71.0692278
(estimated)
Elevation: 195 ft. / 59 m (estimated)
Variation: 16W (1995)
Time zone: UTC -4 (UTC -5 during Standard Time)
Zip code: 02114

Heliport Operations

Heliport use: Private use, MEDICAL USE.
Activation date: 03/1998
Control tower: no
ARTCC: BOSTON CENTER
FSS: BRIDGEPORT FLIGHT SERVICE STATION
NOTAMs facility: FDC (NOTAM-D service not available)
Attendance: CONTINUOUS
Wind indicator: yes
Segmented circle: no

Heliport Communications

WX ASOS at BOS (2.8 nm E): 135.0 (617-567-5762)
WX ASOS at OWD (11 nm SW): 119.95 (781-762-4314)
WX ASOS at BED (12 nm NW): 124.6 (781-274-9733)
WX ASOS at BVY (15 nm NE): 119.2 (978-921-5042)

Nearby radio navigation aids

VOR radial/distance  VOR name  Freq  Var
BOSr292/3.6BOSTON VOR/DME112.7016W
MHTr171/33.1MANCHESTER VOR/DME114.4015W

 
NDB name  Hdg/Dist  Freq  Var  ID
STOGE025/14.939715WOW --- .--

Heliport Services

Runway Information

Helipad H1

Dimensions: 60 x 60 ft. / 18 x 18 m
Surface: concrete
Latitude: 42-21.821000N
Longitude: 071-04.153667W
Elevation: 195.0 ft.
Traffic pattern: leftleft

Heliport Ownership and Management from official FAA records

Ownership: Privately-owned
Owner: GENERAL HOSPITAL CORPORATION
55 FRUIT STREET
BOSTON, MA 02114
Phone 617-726-3387
Manager: ROBERT SEGER, EMERGENCY MEDICINE
55 FRUIT ST
BOSTON, MA 02114
Phone 617-726-3387

Additional Remarks

ROOFTOP.
FOR CD CTC BOSTON APCH AT 603-594-5554.

Instrument Procedures

There are no published instrument procedures at 0MA1.

Some nearby airports with instrument procedures:

KBOS - General Edward Lawrence Logan International Airport (3 nm E)
KOWD - Norwood Memorial Airport (11 nm SW)
KBED - Laurence G Hanscom Field Airport (12 nm NW)
KBVY - Beverly Regional Airport (15 nm NE)
6B6 - Minute Man Air Field (21 nm W)
 
Loc | Ops | Rwys | IFR | FBO | Links
Com | Nav | Svcs | Stats | Notes
Area around 0MA1 (Massachusetts General Hospital Heliport)
 
Road maps at: MapQuest Bing Google
 
Aerial photo
No photo
 
Sectional chart

 
Airport distance calculator
Flying to Massachusetts General Hospital Heliport? Find the distance to fly.

From to 0MA1

Sunrise and sunset
Times for 24-Sep-2022
 Local
(UTC-4)
 Zulu
(UTC)
Morning civil twilight06:0710:07
Sunrise06:3510:35
Sunset18:3822:38
Evening civil twilight19:0623:06

Current date and time
Zulu (UTC)  24-Sep-2022 21:43:02
Local (UTC-4)  24-Sep-2022 17:43:02
 
METAR
KBOS 
2nm E 
242054Z 29016KT 10SM FEW220 20/03 A2981 RMK AO2 SLP092 T02000033 55009
KOWD 
12nm S 
242053Z 32007KT 10SM CLR 21/04 A2982 RMK AO2 SLP097 T02060044 55010
KBED 
12nm NW 
242051Z 32012KT 10SM CLR 19/04 A2981 RMK AO2 SLP106 T01940039 56011 $
KBVY 
15nm NE 
242053Z 30014G19KT 10SM CLR 19/04 A2979 RMK AO2 SLP082 T01890044 56010
TAF
KBOS 
2nm E 
242011Z 2420/2524 30013G25KT P6SM FEW250 FM250000 27007KT P6SM FEW250 FM251400 22007KT P6SM BKN110 FM251800 20010G18KT P6SM BKN070 FM252100 18009KT P6SM -SHRA BKN070
KBED 
12nm NW 
242011Z 2420/2518 31012G20KT P6SM SKC FM242200 29009KT P6SM SKC FM250000 26004KT P6SM FEW250 FM251100 23003KT P6SM BKN120 FM251600 21007KT P6SM BKN080
NOTAMs
Click for the latest NOTAMs
NOTAMs are issued by the DoD/FAA and will open in a separate window not controlled by AirNav.

 

 
 

Would you like to see your business listed on this page?

 If your business provides an interesting product or service to pilots, flight crews, aircraft, or users of the Massachusetts General Hospital Heliport, you should consider listing it here.  To start the listing process, click on the button below
 
Add a business
 

Other Pages about Massachusetts General Hospital Heliport

Update a link
 
Copyright © AirNav, LLC. All rights reserved. Privacy Policy  Contact